Weather in Lopatino

Russia / Samara Oblast     53°04′40″N   50°13′02″E
temp.,
°C
wind,
m/s
gust,
m/s
humid.,
%
clouds,
%
prec.,
mm/h
press.,
hPa
HPBL,
m
28 february, sun
sun2801:00−10nnw4896100 0.5 999338
04:00−12nw599599 0.8 1002417
07:00−14nw5994100 0.4 1004413
10:00−15nw5892100 0.4 1006391
13:00−13nw5791100 0.0 1008479
16:00−13nw5791100 0.1 1009499
19:00−15nw479596 0.1 1012233
22:00−16wnw369787 0.1 1014131
1 march, mon
mon101:00−15nw369686 0.1 1015233
04:00−17nw359785 0.2 1017100
07:00−19nw339776 0.1 101953
10:00−18nw359346 0.1 1021235
13:00−14nw348859 0.0 1022412
16:00−13wnw359179 0.0 1023443
19:00−17wnw339590 0.0 102327
22:00−19w239546 0.0 102320
2 march, tue
tue201:00−19sw339815 0.0 102130
04:00−17sw489737 0.0 1019139
07:00−15ssw5109498 0.0 1016237
10:00−11ssw7129499 0.1 1013413
13:00−7sw81394100 0.7 1009632
16:00−4sw81494100 1.6 1006744
19:00−3sw71396100 1.4 1003629
22:00−2sw61197100 2.6 1002461
3 march, wed
wed301:00−2wsw4797100 0.9 1000242
04:00−7w479798 1.0 1000101
07:00−3nw51094100 0.3 1001449
10:00−3nw599199 0.3 1002642
13:00−2nw5789100 0.1 1003739
16:00−2nw5792100 0.1 1005650
19:00−3wnw4896100 0.3 1006298
22:00−5nw489497 0.4 1008215
4 march, thu
thu401:00−6nnw4119489 0.1 1009412
04:00−11nw479459 0.1 101195
07:00−12wnw47950 0.0 1013108
10:00−9wnw589322 0.0 1015405
13:00−6wnw578997 0.0 1016664
16:00−5w578899 0.1 1016665
19:00−10sw489477 0.0 1016140
22:00−9sw6119544 0.0 1016258